Flag for USA

Past Weather in St. Petersburg, Florida, USA — Yesterday and Last 2 Weeks

Now
89 °F

Passing clouds.


Feels Like: 102 °F
Forecast: 89 / 80 °F
Wind: 12 mph from West

Location: Whitted Airport

Current Time: Jul 14, 2020 at 8:15:43 pm

Latest Report: Jul 14, 2020 at 6:53 pm


Visibility: 10 mi

Pressure: 30.01 "Hg

Humidity: 68%

Dew Point: 77 °F

Location of St. PetersburgLocation

Past Weather in St. Petersburg — Graph

°F

St. Petersburg Temperature Yesterday

Maximum temperature yesterday: 90 °F (at 2:53 pm)
Minimum temperature yesterday: 83 °F (at 3:53 am)
Average temperature yesterday: 86 °F

High & Low Weather Summary for the Past Weeks

 TemperatureHumidityPressure
High90 °F (Jun 29, 6:53 pm)97% (Jul 6, 4:53 am)30.07 "Hg (Jul 6, 4:53 am)
Low77 °F (Jul 5, 5:55 am)57% (Jul 1, 12:53 pm)29.85 "Hg (Jul 12, 6:53 pm)
Average85 °F76%29.95 "Hg
* Reported Jun 29 6:53 pm — Jul 14 6:53 pm, St. Petersburg. Weather by CustomWeather, © 2020

Note: Actual official high and low records may vary slightly from our data, if they occured in-between our weather recording intervals... More about our weather records

St. Petersburg Weather History for the Previous 24 Hours

Scroll right to see more
 ConditionsComfort  
Time TempWeatherWind HumidityBarometerVisibility
6:53 pm
Tue, Jul 14
89 °FPassing clouds.12 mph68%30.01 "Hg10 mi
5:53 pm89 °FSunny.9 mph63%30.00 "Hg10 mi
4:53 pm89 °FPassing clouds.10 mph72%30.00 "Hg10 mi
3:53 pm89 °FSunny.13 mph68%30.01 "Hg10 mi
2:53 pm90 °FSunny.13 mph61%30.01 "Hg10 mi
1:53 pm89 °FPassing clouds.12 mph63%30.03 "Hg10 mi
12:53 pm89 °FPassing clouds.7 mph63%30.04 "Hg10 mi
11:53 am88 °FSunny.No wind65%30.04 "Hg10 mi
10:53 am86 °FScattered clouds.5 mph75%30.04 "Hg10 mi
9:53 am83 °FPartly sunny.5 mph79%30.03 "Hg10 mi
8:53 am82 °FPassing clouds.3 mph79%30.02 "Hg10 mi
7:53 am82 °FCloudy.9 mph85%29.99 "Hg10 mi
7:43 am82 °FCloudy.8 mph85%30.00 "Hg10 mi
6:53 am85 °FSunny.3 mph80%29.98 "Hg10 mi
5:53 am85 °FClear.6 mph83%29.96 "Hg10 mi
4:53 am84 °FClear.5 mph85%29.95 "Hg10 mi
3:53 am85 °FClear.6 mph83%29.94 "Hg10 mi
2:53 am85 °FClear.3 mph83%29.95 "Hg10 mi
1:53 am85 °FClear.5 mph83%29.96 "Hg10 mi
12:53 am85 °FClear.6 mph83%29.97 "Hg10 mi
11:53 pm
Mon, Jul 13
86 °FClear.5 mph77%29.97 "Hg10 mi
10:53 pm86 °FClear.9 mph80%29.96 "Hg10 mi
9:53 pm86 °FClear.7 mph83%29.96 "Hg10 mi
8:53 pm86 °FClear.8 mph83%29.94 "Hg10 mi
Weather by CustomWeather, © 2020

See weather overview